When you browse on this site, cookies collect data to enhance your experience and personalize the content and advertising you see.
Visit our Privacy Policy to learn more. By continuing to use the site, you agree to this use of cookies and data.
  • In United Kingdom
  • List of Countries
  • For 7 days
  • Water Temperature
  • Satellite Maps
  • Weather Map
  • Weather Widgets
  • user-avatar
    Login

    Hourly Weather Innsbruck

    Today, 21 February, Thursday

    Time Temperature Precipitation Wind Pressure Humidity
    00:00 -4°C° 0 mm 1 mps 598 mmHg 85%
    01:00 -6°C° 0 mm 1 mps 598 mmHg 83%
    02:00 -6°C° 0 mm 1 mps 598 mmHg 82%
    03:00 -6°C° 0 mm 1 mps 598 mmHg 81%
    04:00 -6°C° 0 mm 1 mps 598 mmHg 80%
    05:00 -6°C° 0 mm 1 mps 598 mmHg 80%
    06:00 -4°C° 0 mm 1 mps 598 mmHg 80%
    07:00 -4°C° 0 mm 1 mps 598 mmHg 79%
    08:00 -3°C° 0 mm 1 mps 599 mmHg 82%
    09:00 -1°C° 0 mm 1 mps 599 mmHg 84%
    10:00 0°C° 0 mm 1 mps 600 mmHg 86%
    11:00 +1°C° 0 mm 1 mps 600 mmHg 87%
    12:00 +1°C° 0 mm 1 mps 600 mmHg 89%
    13:00 +2°C° 0 mm 1 mps 600 mmHg 90%
    14:00 +2°C° 0 mm 1 mps 600 mmHg 91%
    15:00 +1°C° 0 mm 1 mps 600 mmHg 93%
    16:00 +1°C° 0 mm 1 mps 599 mmHg 95%
    17:00 0°C° 0 mm 1 mps 599 mmHg 95%
    18:00 -1°C° 0 mm 1 mps 599 mmHg 95%
    19:00 -3°C° 0 mm 1 mps 599 mmHg 96%
    20:00 -5°C° 0 mm 2 mps 599 mmHg 92%
    21:00 -6°C° 0 mm 2 mps 599 mmHg 89%
    22:00 -7°C° 0 mm 2 mps 599 mmHg 86%
    23:00 -7°C° 0 mm 2 mps 599 mmHg 84%

    Tomorrow, 22 February, Friday

    Time Temperature Precipitation Wind Pressure Humidity
    00:00 -7°C° 0 mm 2 mps 599 mmHg 83%
    01:00 -7°C° 0 mm 2 mps 599 mmHg 81%
    02:00 -7°C° 0 mm 2 mps 599 mmHg 81%
    03:00 -6°C° 0 mm 2 mps 599 mmHg 82%
    04:00 -6°C° 0 mm 2 mps 599 mmHg 82%
    05:00 -5°C° 0.2 mm 2 mps 599 mmHg 85%
    06:00 -5°C° 0.2 mm 2 mps 600 mmHg 87%
    07:00 -5°C° 0.2 mm 2 mps 600 mmHg 90%
    08:00 -4°C° 0.4 mm 2 mps 600 mmHg 91%
    09:00 -5°C° 0.4 mm 3 mps 600 mmHg 93%
    10:00 -4°C° 0.4 mm 3 mps 600 mmHg 94%
    11:00 -4°C° 0.2 mm 3 mps 601 mmHg 95%
    12:00 -4°C° 0.2 mm 3 mps 601 mmHg 95%
    13:00 -2°C° 0.2 mm 3 mps 601 mmHg 96%
    14:00 -4°C° 0 mm 3 mps 601 mmHg 95%
    15:00 -3°C° 0 mm 2 mps 601 mmHg 95%
    16:00 -3°C° 0 mm 2 mps 600 mmHg 95%
    17:00 -4°C° 0 mm 2 mps 600 mmHg 95%
    18:00 -5°C° 0 mm 2 mps 601 mmHg 96%
    19:00 -3°C° 0 mm 1 mps 601 mmHg 96%
    20:00 -4°C° 0 mm 1 mps 601 mmHg 95%
    21:00 -6°C° 0 mm 1 mps 601 mmHg 94%
    22:00 -6°C° 0 mm 1 mps 601 mmHg 93%
    23:00 -6°C° 0 mm 1 mps 601 mmHg 90%

    Day after tomorrow, 23 February, Saturday

    Time Temperature Precipitation Wind Pressure Humidity
    00:00 -7°C° 0 mm 1 mps 601 mmHg 87%
    01:00 -7°C° 0 mm 1 mps 601 mmHg 84%
    02:00 -7°C° 0 mm 1 mps 600 mmHg 80%
    03:00 -7°C° 0 mm 1 mps 600 mmHg 76%
    04:00 -7°C° 0 mm 1 mps 600 mmHg 73%
    05:00 -7°C° 0 mm 1 mps 600 mmHg 68%
    06:00 -7°C° 0 mm 1 mps 600 mmHg 63%
    07:00 -7°C° 0 mm 1 mps 600 mmHg 58%
    08:00 -4°C° 0 mm 1 mps 601 mmHg 59%
    09:00 -4°C° 0 mm 2 mps 602 mmHg 61%
    10:00 -3°C° 0 mm 2 mps 603 mmHg 63%
    11:00 -2°C° 0 mm 2 mps 603 mmHg 65%
    12:00 -2°C° 0 mm 2 mps 603 mmHg 68%
    13:00 -1°C° 0 mm 2 mps 603 mmHg 70%
    14:00 -1°C° 0 mm 2 mps 603 mmHg 71%
    15:00 -2°C° 0 mm 2 mps 603 mmHg 72%
    16:00 0°C° 0 mm 1 mps 602 mmHg 72%
    17:00 -1°C° 0 mm 1 mps 602 mmHg 70%
    18:00 -3°C° 0 mm 1 mps 602 mmHg 68%
    19:00 -6°C° 0 mm 1 mps 601 mmHg 66%
    20:00 -4°C° 0 mm 1 mps 601 mmHg 60%
    21:00 -4°C° 0 mm 1 mps 602 mmHg 54%
    22:00 -4°C° 0 mm 1 mps 602 mmHg 48%
    23:00 -4°C° 0 mm 1 mps 602 mmHg 46%

    24 February, Sunday

    Time Temperature Precipitation Wind Pressure Humidity
    00:00 -4°C° 0 mm 1 mps 602 mmHg 44%
    01:00 -4°C° 0 mm 1 mps 602 mmHg 42%
    02:00 -4°C° 0 mm 1 mps 602 mmHg 42%
    03:00 -4°C° 0 mm 1 mps 601 mmHg 42%
    04:00 -4°C° 0 mm 1 mps 601 mmHg 43%
    05:00 -4°C° 0 mm 1 mps 601 mmHg 43%
    06:00 -4°C° 0 mm 1 mps 601 mmHg 43%
    07:00 -4°C° 0 mm 1 mps 602 mmHg 43%
    08:00 -3°C° 0 mm 1 mps 602 mmHg 49%
    09:00 -1°C° 0 mm 1 mps 603 mmHg 56%
    10:00 +1°C° 0 mm 1 mps 604 mmHg 62%
    11:00 +2°C° 0 mm 1 mps 604 mmHg 65%
    12:00 +1°C° 0 mm 2 mps 604 mmHg 67%
    13:00 +1°C° 0 mm 2 mps 604 mmHg 70%
    14:00 +1°C° 0 mm 2 mps 604 mmHg 73%
    15:00 +1°C° 0 mm 2 mps 603 mmHg 75%
    16:00 +1°C° 0 mm 1 mps 603 mmHg 77%
    17:00 0°C° 0 mm 1 mps 603 mmHg 77%
    18:00 -1°C° 0 mm 1 mps 603 mmHg 76%
    19:00 -3°C° 0 mm 1 mps 602 mmHg 76%
    20:00 -3°C° 0 mm 1 mps 602 mmHg 74%
    21:00 -3°C° 0 mm 1 mps 603 mmHg 71%
    22:00 -3°C° 0 mm 1 mps 603 mmHg 69%
    23:00 -3°C° 0 mm 1 mps 603 mmHg 70%

    25 February, Monday

    Time Temperature Precipitation Wind Pressure Humidity
    00:00 -3°C° 0 mm 1 mps 602 mmHg 71%
    01:00 -3°C° 0 mm 1 mps 602 mmHg 72%
    02:00 -3°C° 0 mm 1 mps 602 mmHg 73%
    03:00 -3°C° 0 mm 1 mps 602 mmHg 75%
    04:00 -3°C° 0 mm 1 mps 601 mmHg 76%
    05:00 -3°C° 0 mm 1 mps 601 mmHg 77%
    06:00 -4°C° 0 mm 1 mps 601 mmHg 79%
    07:00 -6°C° 0 mm 2 mps 601 mmHg 80%
    08:00 -4°C° 0 mm 2 mps 602 mmHg 80%
    09:00 -3°C° 0 mm 2 mps 602 mmHg 81%
    10:00 -1°C° 0 mm 2 mps 603 mmHg 82%
    11:00 -1°C° 0 mm 2 mps 603 mmHg 81%
    12:00 0°C° 0 mm 3 mps 603 mmHg 81%
    13:00 0°C° 0 mm 3 mps 602 mmHg 80%
    14:00 0°C° 0 mm 3 mps 602 mmHg 81%
    15:00 -1°C° 0 mm 3 mps 602 mmHg 82%
    16:00 -1°C° 0 mm 2 mps 602 mmHg 84%
    17:00 -2°C° 0 mm 2 mps 601 mmHg 86%
    18:00 -2°C° 0 mm 1 mps 601 mmHg 88%
    19:00 -3°C° 0 mm 1 mps 601 mmHg 90%
    20:00 -3°C° 0 mm 1 mps 601 mmHg 85%
    21:00 -3°C° 0 mm 1 mps 601 mmHg 80%
    22:00 -3°C° 0 mm 1 mps 601 mmHg 74%
    23:00 -3°C° 0 mm 1 mps 601 mmHg 70%

    26 February, Tuesday

    Time Temperature Precipitation Wind Pressure Humidity
    00:00 -3°C° 0 mm 1 mps 601 mmHg 66%
    01:00 -3°C° 0 mm 1 mps 602 mmHg 62%
    02:00 -3°C° 0 mm 1 mps 601 mmHg 59%
    03:00 -3°C° 0 mm 1 mps 601 mmHg 56%
    04:00 -3°C° 0 mm 1 mps 601 mmHg 53%
    05:00 -3°C° 0 mm 1 mps 601 mmHg 49%
    06:00 -3°C° 0 mm 1 mps 601 mmHg 46%
    07:00 -3°C° 0 mm 1 mps 601 mmHg 43%
    08:00 -1°C° 0 mm 1 mps 602 mmHg 44%
    09:00 +1°C° 0 mm 1 mps 603 mmHg 45%
    10:00 +3°C° 0 mm 1 mps 603 mmHg 45%
    11:00 +4°C° 0 mm 1 mps 604 mmHg 47%
    12:00 +5°C° 0 mm 1 mps 604 mmHg 48%
    13:00 +6°C° 0 mm 1 mps 604 mmHg 49%
    14:00 +5°C° 0 mm 1 mps 603 mmHg 54%
    15:00 +5°C° 0 mm 1 mps 603 mmHg 59%
    16:00 +4°C° 0 mm 1 mps 602 mmHg 64%
    17:00 +2°C° 0 mm 1 mps 602 mmHg 66%
    18:00 0°C° 0 mm 1 mps 601 mmHg 67%
    19:00 -1°C° 0 mm 1 mps 601 mmHg 69%
    20:00 -1°C° 0 mm 1 mps 601 mmHg 63%
    21:00 -1°C° 0 mm 1 mps 601 mmHg 57%
    22:00 -1°C° 0 mm 1 mps 601 mmHg 51%
    23:00 -1°C° 0 mm 1 mps 601 mmHg 49%
    Show more